Flag for Australia Weather past 2 weeks in Canberra, Australian Capital Territory, Australia

Now
39 °F

Passing clouds.


Feels Like: 32 °F
Forecast: 32 / 53 °F
Wind: 12 mph from North

Location: Canberra Airport

Current Time: Jul 30, 2015 at 8:12:31 AM

Latest Report: Jul 30, 2015 at 7:30 AM


Visibility: N/A

Pressure: 30.27 "Hg (28.19 "Hg at 577m altitude)

Humidity: 87%

Dew point: 36 °F

Location of CanberraLocation

Historic Weather in Canberra — Graph

°F

Canberra temperature yesterday

Maximum temperature yesterday: 54 °F (at 12:30 PM)
Minimum temperature yesterday: 27 °F (at 6:00 AM)
Average temperature yesterday: 40 °F

Past Weeks' High & Low Weather Summary

 TemperatureHumidityPressure
High57 °F (Jul 21, 2:30 PM)100% (Jul 15, 10:00 PM)30.54 "Hg (Jul 15, 10:00 PM)
Low23 °F (Jul 19, 6:30 AM)38% (Jul 20, 3:00 PM)29.86 "Hg (Jul 17, 5:00 AM)
Average41 °F81%30.23 "Hg
* Reported Jul 15 6:00 AM — Jul 30 6:30 AM, Canberra, Weather by CustomWeather, © 2015

Note: Actual official high and low records may vary slightly from our data, if they occured in-between our weather recording intervals... More about our weather records

Advertising

Canberra weather history for previous 24 hours

 ConditionsComfort  
Time TempWeatherWind HumidityBarometerVisibility
6:30 AM
Thu, Jul 30
32 °FSunny.6 mph93%30.24 "Hg10 mi
6:00 AM30 °FSunny.6 mph93%30.24 "Hg10 mi
5:30 AM28 °FClear.1 mph100%30.27 "Hg10 mi
5:00 AM30 °FClear.No wind100%30.27 "Hg10 mi
4:30 AM30 °FClear.No wind100%30.27 "Hg10 mi
4:00 AM30 °FClear.No wind93%30.27 "HgN/A
3:30 AM28 °FClear.2 mph93%30.30 "HgN/A
3:00 AM32 °FClear.No wind93%30.30 "HgN/A
2:30 AM30 °FClear.No wind100%30.30 "HgN/A
2:00 AM30 °FClear.No wind93%30.33 "HgN/A
1:30 AM34 °FClear.No wind87%30.33 "HgN/A
1:00 AM34 °FClear.No wind93%30.33 "HgN/A
12:30 AM34 °FClear.No wind93%30.33 "HgN/A
12:00 AM34 °FClear.No wind93%30.36 "HgN/A
11:30 PM
Wed, Jul 29
36 °FClear.No wind93%30.36 "HgN/A
11:00 PM34 °FClear.6 mph87%30.39 "HgN/A
10:30 PM37 °FClear.2 mph81%30.39 "HgN/A
10:00 PM37 °FClear.No wind81%30.39 "HgN/A
9:30 PM39 °FClear.No wind81%30.39 "HgN/A
9:00 PM37 °FClear.No wind87%30.39 "HgN/A
8:30 PM41 °FPassing clouds.6 mph76%30.39 "HgN/A
8:00 PM41 °FPassing clouds.5 mph70%30.39 "HgN/A
7:30 PM43 °FPassing clouds.6 mph71%30.39 "HgN/A
7:00 PM45 °FPassing clouds.7 mph66%30.39 "HgN/A
6:30 PM45 °FPassing clouds.6 mph71%30.39 "HgN/A
5:30 PM45 °FPassing clouds.8 mph71%30.39 "HgN/A
5:00 PM48 °FPassing clouds.8 mph62%30.36 "HgN/A
4:30 PM50 °FPassing clouds.13 mph58%30.39 "HgN/A
4:00 PM52 °FPartly sunny.15 mph50%30.39 "HgN/A
3:30 PM52 °FPartly sunny.15 mph50%30.39 "HgN/A
3:00 PM52 °FPartly sunny.14 mph47%30.39 "HgN/A
2:30 PM54 °FScattered clouds.15 mph47%30.39 "HgN/A
1:30 PM54 °FPassing clouds.13 mph47%30.42 "HgN/A
1:00 PM54 °FPassing clouds.15 mph51%30.45 "HgN/A
12:30 PM54 °FPassing clouds.13 mph54%30.45 "HgN/A
12:00 PM52 °FPassing clouds.6 mph58%30.48 "HgN/A
11:30 AM50 °FPassing clouds.5 mph58%30.51 "HgN/A
11:00 AM48 °FPassing clouds.3 mph66%30.51 "HgN/A
10:30 AM45 °FPassing clouds.3 mph71%30.54 "HgN/A
10:00 AM45 °FPassing clouds.3 mph76%30.54 "HgN/A
9:30 AM41 °FPassing clouds.1 mph87%30.54 "HgN/A
9:00 AM37 °FSunny.No wind87%30.54 "Hg10 mi
8:30 AM34 °FPassing clouds.No wind100%30.54 "HgN/A
8:00 AM30 °FLight fog.2 mph100%30.54 "HgN/A
Weather by CustomWeather, © 2015

See weather overviewHow to use our weather pages